{"data":{"norad_id":56143,"intl_designator":"2023-046BD","name":"STARLINK-5016","alt_names":[],"object_type":"PAYLOAD","status":"ACTIVE","operator":null,"country":"US","launch_date":"2023-03-29","launch_site_code":"AFETR","launch_vehicle":null,"mission":null,"orbit_class":"UNKNOWN","rcs_meters":null,"size_class":null,"mass_kg":null,"dimensions":null,"purposes":["comms"],"wikipedia_slug":null,"has_3d_model":false,"image_url":null,"decayed_at":null,"tle_current":{"epoch":"2026-09-19T01:43:52.044096Z","epoch_age_seconds":232182,"freshness":"STALE","line1":"1 56143U 23046BD  26262.07213014  .00018469  00000+0  83010-3 0  9992","line2":"2 56143  42.9963 151.2238 0006515 203.1334 156.9223 15.20810724191581","mean_motion":15.20810724,"eccentricity":0.0006515,"inclination_deg":42.9963,"raan_deg":151.2238,"arg_perigee_deg":203.1334,"mean_anomaly_deg":156.9223,"bstar":0.0008301,"rev_number":19158,"period_min":94.686339152879,"perigee_km":498.9105742521,"apogee_km":507.87720900389,"semimajor_km":6881.530891628,"source":"CELESTRAK","updated_at":"2026-09-21T09:00:33.390274Z"}}}